world map with ASW marked

ASW - Airport

This information may not be accurate or current and is not valid for navigation or flight planning. No warranty of fitness for any purpose is made or implied.

flag of Egypt

Donate via PayPal

Additional information is available on the NEW Great Circle Mapper

Location
City:  Aswan, Egypt
Name:Aswan International Airport
ICAO / IATA:HESN / ASW

Details
Type:Airport (Aerodrome, Airfield)
Use:Public/Civil
Latitude:23°57'52"N (23.964356)
Longitude:32°49'12"E (32.819975)
Datum:WGS 1984
Elevation:662 ft (202 m)
Runways:1
Longest:11161 × 148 ft (3402 × 45 m)

Time
Timezone:UTC+2
Local Time:

Weather
METAR:HESN  241100Z 02010KT CAVOK 32/04 Q1015 NOSIG
TAF:HESN  (expired)

Related Locations
Nearby:
Farthest:NTAV: 12417 mi / 19983 km
Raivavae, Tubuai Islands, Austral Islands, PF

Find:

   beyond  
but within

Other Information
Maps:
Links:
Sources:

  


 


Great Circle Mapper   Great Circle Mapper
Great Circle Mapper FAQ   Great Circle Mapper FAQ
  Karl's Home Page
KLSē   KLSē Home
   GC on Facebook
Airlines of the World   Airlines of the World
Donate via PayPal


Copyright © 2004-2014, Karl L. Swartz. All rights reserved.
All trademarks mentioned herein belong to their respective owners.

Please see credits for attribution and copyright information.

Karl Swartz <karl@kls2.com>
  Powered by FreeBSD
Valid HTML 4.01!
Labeled with ICRA
hCard Microformat
Geo Microformat